Lid_Strength_Index
1 0 -1 -1 -2 -2 -2 -2 -2 -1 -2 -1 -2 -2 -2 -2 -2 -2 -2 -2 -2 -2 -2 -2 -2 -2 -2 -2 -2 -2 -2 -2 -2 -2 -2 -2 -2 -2 -2 -2 -2 -1 -2
0 -0 -1 -2 -2 -2 -2 -2 -2 -2 -2 -2 -2 -2 -2 -2 -2 -2 -2 -2 -2 -2 -2 -2 -2 -2 -2 -2 -2 -2 -2 -2 -2 -2 -2 -1 -2 -2 -2 -2 -2 -1 -2
0 -0 -0 -1 -2 -2 -2 -2 -2 -2 -2 -2 -2 -2 -2 -2 -2 -2 -2 -2 -2 -2 -2 -2 -2 -2 -2 -1 -2 -2 -2 -2 -2 -2 -2 -1 -1 -2 -2 -2 -2 -2 -2
-0 -0 -0 -1 -2 -2 -2 -2 -2 -2 -2 -2 -2 -2 -2 -2 -2 -2 -2 -2 -2 -2 -2 -2 -2 -2 -2 -2 -2 -2 -2 -2 -2 -2 -1 -1 -1 -2 -2 -2 -2 -2 -2
-0 -0 -0 -1 -2 -2 -2 -2 -2 -2 -2 -2 -2 -2 -2 -2 -2 -2 -2 -2 -2 -2 -2 -2 -2 -2 -2 -2 -2 -2 -2 -2 -1 -0 -0 -0 -1 -2 -2 -2 -2 -2 -2
0 -0 -0 -1 -2 -2 -2 -2 -2 -2 -2 -2 -2 -2 -2 -2 -2 -2 -2 -2 -2 -2 -2 -2 -2 -2 -2 -2 -2 -2 -2 -2 -1 -0 0 -1 -1 -2 -2 -2 -2 -2 -2
-0 0 -0 -1 -1 -2 -2 -2 -2 -2 -2 -2 -2 -2 -2 -2 -2 -2 -2 -2 -2 -2 -2 -2 -2 -2 -2 -2 -2 -2 -2 -2 -1 -1 -0 0 -0 -2 -2 -2 -2 -2 -2
-0 0 -0 1 -0 -1 -1 -2 -2 -2 -2 -2 -2 -2 -2 -2 -2 -2 -2 -2 -2 -2 -2 -2 -2 -2 -2 -2 -2 -2 -2 -1 -1 -1 -1 -1 -2 -2 -3 -3 -3 -2 -2
-0 -0 0 0 0 0 -1 -1 -1 -2 -2 -2 -2 -2 -2 -2 -2 -2 -2 -2 -2 -2 -2 -2 -2 -2 -2 -2 -2 -2 -1 -1 1 0 -0 -1 -2 -3 -2 -2 -2 -1 -1
0 -0 -0 0 0 0 0 0 -0 -1 -1 -1 -1 -1 -1 -2 -2 -2 -1 -2 -2 -2 -2 -2 -2 -2 -2 -1 -1 -0 -0 0 2 2 1 -1 -2 -2 -2 -1 -1 -1 -1
1 0 0 -0 1 0 0 1 0 -0 -0 -0 -0 0 1 1 1 0 -1 -2 -2 -2 -1 -2 -2 -1 -0 -0 0 1 1 3 2 2 1 -1 -1 -1 -1 -1 -0 -0 -0
2 1 1 1 -0 1 0 1 1 1 1 1 2 2 3 3 2 1 0 -1 -2 -1 -1 -1 0 2 4 5 5 3 4 4 3 1 1 -1 -1 -1 -0 -0 -0 -0 0
2 1 0 0 -0 0 1 1 2 2 2 2 3 3 2 2 2 2 2 3 3 3 4 5 6 6 7 6 6 6 5 5 4 4 1 -0 -0 -0 0 1 1 1 1
2 1 1 0 0 0 1 1 2 2 3 3 3 3 3 3 3 4 4 5 5 6 7 7 8 8 8 8 8 8 7 6 5 6 4 1 0 1 0 1 1 1 1
3 2 1 1 1 1 1 1 2 2 2 3 3 3 3 3 4 4 5 5 6 7 8 8 8 9 9 9 10 10 10 9 7 7 8 2 1 1 0 1 1 1 1
2 2 1 1 0 1 1 1 1 2 2 3 3 3 3 3 3 4 5 6 7 7 8 9 10 10 11 11 11 11 11 11 10 8 8 8 1 1 1 1 1 1 1
3 2 2 1 1 1 1 0 1 1 1 2 3 3 3 3 3 3 5 6 7 8 10 10 10 11 11 12 12 12 12 12 11 10 9 10 10 4 1 1 2 2 2
4 3 2 1 1 1 1 1 0 1 2 2 2 3 3 3 3 4 4 5 7 8 10 9 11 12 12 13 13 13 13 13 12 12 11 11 11 11 6 3 2 2 2
4 2 2 2 1 1 1 1 0 1 1 2 2 2 3 3 4 4 5 5 7 9 10 10 12 12 12 13 13 14 14 14 14 12 12 13 12 12 13 7 6 5 3
3 2 1 1 2 1 0 1 1 1 1 2 2 2 3 3 3 4 5 6 8 9 10 11 12 12 12 13 13 14 15 14 15 14 14 13 13 13 14 13 12 11 4
4 3 1 2 2 2 1 2 2 2 2 2 2 2 3 3 4 4 5 6 8 10 10 11 13 13 14 14 14 14 14 15 15 15 15 15 14 14 14 14 13 12 12
6 3 2 1 1 1 1 1 1 1 2 1 2 2 3 3 4 4 5 6 7 9 11 12 13 13 14 13 14 14 15 16 15 15 15 15 16 15 14 14 14 13 13
11 6 3 1 1 1 1 1 6 6 6 6 5 3 3 3 4 4 4 6 7 8 11 12 12 12 15 14 13 13 17 15 17 16 16 16 16 16 15 15 14 14 14
12 10 6 2 2 1 1 1 2 2 3 3 3 3 3 3 3 4 5 5 7 8 10 11 11 11 12 14 14 13 13 14 16 17 16 17 16 17 16 15 15 15 14
11 11 8 4 2 2 1 1 2 2 2 5 5 5 5 5 4 4 4 5 6 7 8 10 11 11 11 12 13 14 14 15 15 16 17 19 17 16 16 16 15 15 15
8 8 6 4 3 2 1 1 2 2 5 6 7 6 6 7 7 7 6 5 5 6 7 9 10 10 11 12 11 13 14 15 16 16 17 18 18 17 16 16 16 15 15